Location: Alsip
(41.6689°N, 87.7387°W)
Time: 22:36:37
(UTC+00:00)

Cosmos 44 Rocket - Visible Passes

Search period start: 26 October 2020 00:00
Search period end: 05 November 2020 00:00
Orbit: 644 x 746 km, 65.1° (Epoch: 26 October)

Date Brightness Start Highest point End Pass type
(mag) Time Alt. Az. Time Alt. Az. Time Alt. Az.
26 Oct 5.3 01:24:19 10° SSW 01:25:34 18° SSW 01:25:34 18° SSW visible
26 Oct 6.3 08:25:35 12° ENE 08:25:35 12° ENE 08:26:27 10° ENE visible
26 Oct 3.5 10:04:23 44° NNW 10:06:01 73° NE 10:11:12 10° SE visible
26 Oct 5.1 11:44:02 10° WNW 11:46:58 15° WSW 11:49:53 10° SW visible
27 Oct 4.2 00:25:27 10° S 00:28:44 28° SE 00:28:44 28° SE visible
27 Oct 5.8 02:06:33 10° WSW 02:07:32 15° WSW 02:07:32 15° WSW visible
27 Oct 5.2 09:07:30 29° E 09:07:30 29° E 09:10:45 10° ESE visible
27 Oct 3.9 10:46:18 32° W 10:47:38 37° WSW 10:52:22 10° S visible
27 Oct 5.1 23:28:51 10° ESE 23:30:19 11° ESE 23:31:46 10° E visible
28 Oct 3.3 01:06:17 10° SW 01:10:35 72° SW 01:10:35 72° SW visible
28 Oct 4.0 09:49:32 48° SSE 09:49:32 48° SSE 09:53:15 10° SSE visible
28 Oct 5.2 11:28:20 11° W 11:28:49 11° WSW 11:30:26 10° WSW visible
29 Oct 3.7 00:07:04 10° S 00:11:27 39° ESE 00:13:30 26° ENE visible
29 Oct 5.1 01:48:55 10° WSW 01:52:17 27° WNW 01:52:17 27° WNW visible
29 Oct 6.2 08:52:51 11° ESE 08:52:51 11° ESE 08:53:05 10° ESE visible
29 Oct 4.9 10:31:39 22° SSW 10:31:39 22° SSW 10:33:58 10° S visible
30 Oct 3.6 00:48:21 10° SW 00:53:04 64° NW 00:55:01 35° NNE visible
30 Oct 6.4 02:33:31 10° WNW 02:33:47 11° WNW 02:33:47 11° WNW visible
30 Oct 5.9 09:35:00 11° SSE 09:35:00 11° SSE 09:35:12 10° SSE visible
30 Oct 3.4 23:48:49 10° SSW 23:53:23 51° ESE 23:57:37 13° NE visible
31 Oct 5.3 01:31:21 10° W 01:35:13 24° NW 01:36:22 22° NNW visible
01 Nov 4.1 00:30:30 10° SW 00:35:08 50° NW 00:38:50 16° NNE visible
01 Nov 6.3 02:16:54 10° NW 02:17:35 10° NW 02:17:35 10° NW visible
01 Nov 3.2 23:30:40 10° SSW 23:35:22 68° ESE 23:40:15 10° NE visible
02 Nov 5.6 01:13:54 10° W 01:17:24 20° NW 01:19:55 14° N visible
03 Nov 4.5 00:12:44 10° WSW 00:17:13 39° NW 00:21:51 10° NNE visible
03 Nov 3.3 23:12:36 10° SSW 23:17:21 88° SE 23:22:18 10° NNE visible
04 Nov 5.8 00:56:33 10° WNW 00:59:36 16° NW 01:02:43 10° N visible
